Location: Dompnac
(44.5644°N, 4.1026°E)
Time: 11:23:35
(UTC+00:00)

Cosmos 1891 Rocket - Pass Details

Date: 17 January 2021
Orbit: 934 x 1018 km, 82.9° (Epoch: 24 February)

Event Time Altitude Azimuth Distance (km) Brightness Sun altitude
Rises 05:01:04 0° 177° (S) 3,684 7.6 -23.6°
Reaches altitude 10° 05:03:37 10° 174° (S) 2,727 7.0 -23.1°
Maximum altitude 05:09:47 66° 94° (E) 1,051 4.8 -22.0°
Drops below altitude 10° 05:15:51 10° 14° (NNE) 2,688 6.9 -20.9°
Sets 05:18:21 0° 11° (NNE) 3,628 7.5 -20.5°
